This demonstration page uses our WeatherBlox Daily Observations layout. Learn more.

Left ArrowRight Arrow

38.20091, -84.87328

Hourly Observations for August 10, 2018

Temp ( °F °C ) Dew Point ( °F °C ) Humidity (%) Winds ( mph kmh ) Pressure ( in mb ) Visibility ( mi km ) Precip ( " mm )
12:53 am 00:53 Clear 71 21.7 68 20 90 90 Calm 29.98 1015 10 16 0.00 0.00
1:53 am 01:53 Clear 69 20.6 67 19.4 93 93 Calm 29.97 1015 9 14 0.00 0.00
2:53 am 02:53 Clear 68 20 66 18.9 93 93 S 5 7 29.95 1014 9 14 0.00 0.00
3:53 am 03:53 Clear 68 20 66 18.9 93 93 Calm 29.96 1015 9 14 0.00 0.00
4:53 am 04:53 Clear 68 20 67 19.4 96 96 S 3 6 29.95 1014 9 14 0.00 0.00
5:53 am 05:53 Clear 69 20.6 67 19.4 93 93 Calm 29.95 1014 7 11 0.00 0.00
6:53 am 06:53 Sunny 68 20 66 18.9 93 93 Calm 29.97 1015 9 14 0.00 0.00
7:53 am 07:53 Sunny 70 21.1 68 20 93 93 Calm 29.97 1015 7 11 0.00 0.00
8:53 am 08:53 Sunny 71 21.7 69 20.6 94 94 Calm 29.98 1015 7 11 0.00 0.00
9:53 am 09:53 Sunny 74 23.3 70 21.1 88 88 Calm 29.98 1015 10 16 0.00 0.00
10:53 am 10:53 Sunny 77 25 70 21.1 79 79 Calm 29.98 1015 10 16 0.00 0.00
11:53 am 11:53 Sunny 81 27.2 69 20.6 67 67 Calm 29.98 1015 10 16 0.00 0.00
12:53 pm 12:53 Sunny 82 27.8 68 20 63 63 Calm 29.97 1015 10 16 0.00 0.00
1:53 pm 13:53 Sunny 83 28.3 67 19.4 59 59 Calm 29.96 1015 10 16 0.00 0.00
2:53 pm 14:53 Cloudy 82 27.8 68 20 63 63 Calm 29.95 1014 10 16 0.00 0.00
3:53 pm 15:53 Mostly Sunny 84 28.9 68 20 59 59 Calm 29.93 1014 10 16 0.00 0.00
4:53 pm 16:53 Mostly Sunny 83 28.3 66 18.9 57 57 Calm 29.91 1013 10 16 0.00 0.00
5:53 pm 17:53 Sunny 83 28.3 67 19.4 59 59 W 5 7 29.90 1012 10 16 0.00 0.00
6:53 pm 18:53 Sunny 84 28.9 65 18.3 53 53 W 3 6 29.88 1012 10 16 0.00 0.00
7:53 pm 19:53 Sunny 81 27.2 67 19.4 62 62 Calm 29.89 1012 10 16 0.00 0.00
8:53 pm 20:53 Clear 77 25 70 21.1 79 79 SW 3 6 29.92 1013 10 16 0.00 0.00
9:53 pm 21:53 Clear 74 23.3 70 21.1 88 88 Calm 29.92 1013 10 16 0.00 0.00
10:53 pm 22:53 Clear 73 22.8 70 21.1 90 90 Calm 29.93 1014 10 16 0.00 0.00
11:53 pm 23:53 Clear 72 22.2 70 21.1 94 94 Calm 29.94 1014 9 14 0.00 0.00

Powered by AerisWeather